This is the latest recevied weather packets stored in our database for station/object JH7UAX-10. If no packets are shown the sender has not sent any weather packets the latest 10 day(s).
| Time | Temp. | Humidity | Pressure | Rain* | Wind** | Luminosity | Snow |
|---|---|---|---|---|---|---|---|
| 1788347654 | 23.33° C | 95% | 1024.1 hPa | 0 mm | - | - | - |
| 1788346754 | 23.33° C | 95% | 1023.9 hPa | 0 mm | - | - | - |
| 1788344954 | 23.89° C | 94% | 1023.9 hPa | 0 mm | - | - | - |
| 1788344054 | 23.89° C | 94% | 1023.7 hPa | 0 mm | - | - | - |
| 1788343153 | 24.44° C | 94% | 1023.6 hPa | 0 mm | - | - | - |
| 1788341354 | 25° C | 93% | 1023.4 hPa | 0 mm | - | - | - |
| 1788340454 | 25° C | 93% | 1023.3 hPa | 0 mm | - | - | - |
| 1788339554 | 25° C | 93% | 1023.2 hPa | 0 mm | - | - | - |
| 1788338655 | 25.56° C | 93% | 1023.2 hPa | 0 mm | - | - | - |
| 1788337754 | 25.56° C | 92% | 1023.3 hPa | 0 mm | - | - | - |
| 1788336855 | 25.56° C | 92% | 1023.4 hPa | 0 mm | - | - | - |
| 1788335954 | 26.11° C | 92% | 1023.2 hPa | 0 mm | - | - | - |
| 1788335054 | 25.56° C | 92% | 1023.4 hPa | 0.76 mm | - | - | - |
| 1788334154 | 25° C | 92% | 1023.5 hPa | 0.76 mm | - | - | - |
| 1788333254 | 25.56° C | 90% | 1023.4 hPa | 0.76 mm | - | - | - |
| 1788332355 | 26.67° C | 89% | 1023.3 hPa | 0.76 mm | - | - | - |
| 1788331454 | 27.22° C | 89% | 1023.2 hPa | 0 mm | - | - | - |
| 1788330555 | 27.22° C | 89% | 1023.1 hPa | 0 mm | - | - | - |
| 1788329655 | 27.22° C | 90% | 1022.9 hPa | 0 mm | - | - | - |
| 1788328755 | 27.22° C | 89% | 1022.9 hPa | 0 mm | - | - | - |
| 1788327855 | 27.78° C | 88% | 1022.7 hPa | 0 mm | - | - | - |
| 1788326055 | 27.78° C | 87% | 1022.9 hPa | 0 mm | - | - | - |
| 1788325154 | 27.22° C | 88% | 1022.7 hPa | 0 mm | - | - | - |
| 1788324255 | 26.67° C | 89% | 1022.9 hPa | 0 mm | - | - | - |
| 1788322454 | 27.22° C | 88% | 1023.3 hPa | 0 mm | - | - | - |
* Rain latest hour (hover to see other rain measurements)
** Current wind speed in m/s (hover to see current wind gust speed)